Weather History for KLOM - June, 2013

Change the Weather History Date:

Friday, June 21, 2013

  Actual Average (KPNE) Record (KPNE)
Temperature  
Mean Temperature 68 °F -  
Max Temperature 82 °F 81 °F 95 °F (2012)
Min Temperature 53 °F 62 °F 52 °F (2004)
Cooling Degree Days 2    
Growing Degree Days 18 (Base 50)    
Moisture  
Dew Point 54 °F    
Average Humidity 62    
Maximum Humidity 94    
Minimum Humidity 37    
Precipitation  
Precipitation 0.00 in - - ()
Sea Level Pressure  
Sea Level Pressure 30.28 in    
Wind  
Wind Speed 1 mph (South)    
Max Wind Speed 12 mph    
Max Gust Speed -    
Visibility 10 miles    
Events      
Averages and records for this station are not official NWS values.
T = Trace of Precipitation, MM = Missing Value Source: NWS Daily Summary

Daily Weather History Graph

Daily Weather History Graph

Search for Another Location

Airport or City:

Trip Planner

Search our weather history database for the weather conditions in past years. The results will help you decide how hot, cold, wet, or windy it might be!

Date:

Astronomy

Jun. 21, 2013 Rise Set
Actual Time 5:31 AM EDT 8:33 PM EDT
Civil Twilight 4:58 AM EDT 9:06 PM EDT
Nautical Twilight 4:17 AM EDT 9:48 PM EDT
Astronomical Twilight 3:27 AM EDT 10:37 PM EDT
Moon 6:41 PM EDT (6/21) 3:45 AM EDT (6/21)
Length of Visible Light 16h 07m
Length of Day
15h 01m
Waxing Gibbous, 95% of the Moon is Illuminated
Jun 21
Waxing Gibbous
Jun 23
Full
Jun 30
Last Quarter
Jul 8
New
Jul 15
First Quarter

Hourly Weather History & Observations

Time (EDT) Temp. Heat Index Dew Point Humidity Pressure Visibility Wind Dir Wind Speed Gust Speed Precip Events Conditions
12:15 AM 64.4 °F - 51.8 °F 64% 30.28 in 10.0 mi Calm Calm - N/A   Clear
12:35 AM 62.6 °F - 51.8 °F 68% 30.28 in 10.0 mi Calm Calm - N/A   Clear
12:55 AM 60.8 °F - 53.6 °F 77% 30.29 in 10.0 mi Calm Calm - N/A   Clear
1:15 AM 60.8 °F - 51.8 °F 72% 30.29 in 10.0 mi Calm Calm - N/A   Clear
1:35 AM 59.0 °F - 53.6 °F 82% 30.30 in 10.0 mi Calm Calm - N/A   Clear
1:55 AM 59.0 °F - 53.6 °F 82% 30.29 in 10.0 mi Calm Calm - N/A   Clear
2:15 AM 59.0 °F - 53.6 °F 82% 30.29 in 10.0 mi Calm Calm - N/A   Clear
2:35 AM 60.8 °F - 53.6 °F 77% 30.28 in 10.0 mi Calm Calm - N/A   Clear
2:55 AM 59.0 °F - 55.4 °F 88% 30.28 in 10.0 mi Calm Calm - N/A   Clear
3:15 AM 55.4 °F - 53.6 °F 94% 30.28 in 10.0 mi Calm Calm - N/A   Clear
3:35 AM 57.2 °F - 53.6 °F 88% 30.28 in 10.0 mi Calm Calm - N/A   Clear
3:55 AM 57.2 °F - 53.6 °F 88% 30.28 in 10.0 mi Calm Calm - N/A   Clear
4:15 AM 57.2 °F - 53.6 °F 88% 30.28 in 10.0 mi Calm Calm - N/A   Clear
4:35 AM 55.4 °F - 53.6 °F 94% 30.28 in 10.0 mi Calm Calm - N/A   Clear
4:55 AM 55.4 °F - 53.6 °F 94% 30.28 in 10.0 mi Calm Calm - N/A   Clear
5:15 AM 55.4 °F - 51.8 °F 88% 30.29 in 10.0 mi Calm Calm - N/A   Clear
5:35 AM 55.4 °F - 51.8 °F 88% 30.28 in 10.0 mi Calm Calm - N/A   Clear
5:55 AM 53.6 °F - 51.8 °F 94% 30.29 in 10.0 mi Calm Calm - N/A   Clear
6:15 AM 55.4 °F - 51.8 °F 88% 30.29 in 10.0 mi Calm Calm - N/A   Clear
6:35 AM 57.2 °F - 53.6 °F 88% 30.30 in 10.0 mi Calm Calm - N/A   Clear
6:55 AM 59.0 °F - 55.4 °F 88% 30.30 in 10.0 mi Calm Calm - N/A   Clear
7:15 AM 62.6 °F - 55.4 °F 77% 30.30 in 10.0 mi Calm Calm - N/A   Clear
7:35 AM 66.2 °F - 51.8 °F 60% 30.31 in 10.0 mi Calm Calm - N/A   Clear
7:55 AM 68.0 °F - 51.8 °F 56% 30.31 in 10.0 mi Calm Calm - N/A   Clear
8:15 AM 69.8 °F - 50.0 °F 49% 30.32 in 10.0 mi Calm Calm - N/A   Clear
8:35 AM 69.8 °F - 51.8 °F 53% 30.32 in 10.0 mi Calm Calm - N/A   Clear
8:55 AM 71.6 °F - 51.8 °F 50% 30.31 in 10.0 mi Calm Calm - N/A   Clear
9:15 AM 73.4 °F - 50.0 °F 44% 30.31 in 10.0 mi Calm Calm - N/A   Clear
9:35 AM 73.4 °F - 50.0 °F 44% 30.30 in 10.0 mi Calm Calm - N/A   Clear
9:55 AM 73.4 °F - 50.0 °F 44% 30.30 in 10.0 mi Calm Calm - N/A   Clear
1:35 PM 80.6 °F 80.5 °F 55.4 °F 42% 30.29 in 10.0 mi South 5.8 mph - N/A   Clear
1:55 PM 80.6 °F 80.3 °F 53.6 °F 39% 30.28 in 10.0 mi Calm Calm - N/A   Clear
2:55 PM 82.4 °F 81.4 °F 53.6 °F 37% 30.28 in 10.0 mi SSE 8.1 mph - N/A   Clear
3:15 PM 82.4 °F 81.7 °F 55.4 °F 39% 30.28 in 10.0 mi Calm Calm - N/A   Clear
3:35 PM 82.4 °F 81.4 °F 53.6 °F 37% 30.27 in 10.0 mi SE 5.8 mph - N/A   Clear
3:55 PM 82.4 °F 81.7 °F 55.4 °F 39% 30.26 in 10.0 mi South 6.9 mph - N/A   Clear
4:15 PM 82.4 °F 81.4 °F 53.6 °F 37% 30.26 in 10.0 mi SSE 11.5 mph - N/A   Clear
4:35 PM 82.4 °F 81.7 °F 55.4 °F 39% 30.26 in 7.0 mi South 4.6 mph - N/A   Clear
4:55 PM 82.4 °F 81.7 °F 55.4 °F 39% 30.26 in 10.0 mi Calm Calm - N/A   Clear
5:15 PM 82.4 °F 81.7 °F 55.4 °F 39% 30.25 in 10.0 mi South 8.1 mph - N/A   Clear
5:35 PM 82.4 °F 82.0 °F 57.2 °F 42% 30.24 in 10.0 mi SSW 6.9 mph - N/A   Clear
5:55 PM 80.6 °F 80.5 °F 55.4 °F 42% 30.24 in 10.0 mi South 5.8 mph - N/A   Clear
6:15 PM 80.6 °F 80.8 °F 57.2 °F 45% 30.25 in 10.0 mi WSW 6.9 mph - N/A   Clear
6:35 PM 80.6 °F 81.1 °F 59.0 °F 48% 30.25 in 10.0 mi SSW 3.5 mph - N/A   Clear
6:55 PM 78.8 °F - 57.2 °F 47% 30.25 in 10.0 mi SSW 4.6 mph - N/A   Clear
7:15 PM 78.8 °F - 59.0 °F 51% 30.26 in 10.0 mi SSW 6.9 mph - N/A   Clear
7:35 PM 77.0 °F - 59.0 °F 54% 30.25 in 10.0 mi SSW 9.2 mph - N/A   Clear
7:55 PM 75.2 °F - 59.0 °F 57% 30.25 in 10.0 mi SW 8.1 mph - N/A   Clear
8:35 PM 73.4 °F - 57.2 °F 57% 30.25 in 10.0 mi Calm Calm - N/A   Clear
9:35 PM 69.8 °F - 53.6 °F 56% 30.25 in 10.0 mi Calm Calm - N/A   Clear
9:55 PM 71.6 °F - 53.6 °F 53% 30.26 in 10.0 mi Calm Calm - N/A   Clear
10:15 PM 69.8 °F - 53.6 °F 56% 30.27 in 10.0 mi Calm Calm - N/A   Clear
11:15 PM 68.0 °F - 53.6 °F 60% 30.27 in 10.0 mi Calm Calm - N/A   Clear